Location: Newark
(41.6500°N, 71.4833°W)
Time: 12:58:56
(UTC+00:00)

Courier 1B - Pass Details

Date: 25 January 2020
Orbit: 962 x 1209 km, 28.3° (Epoch: 25 February)

Event Time Altitude Azimuth Distance (km) Brightness Sun altitude
Rises 12:29:33 0° 257° (WSW) 4,054 10.3 3.3°
Reaches altitude 10° 12:33:40 10° 237° (WSW) 3,118 9.9 4.0°
Maximum altitude 12:38:00 16° 203° (SSW) 2,706 10.0 4.7°
Drops below altitude 10° 12:42:22 10° 169° (S) 3,137 10.9 5.4°
Sets 12:46:33 0° 149° (SSE) 4,091 12.1 6.0°
